Location: Knowlton
(51.2333°N, 1.2667°E)
Time: 10:03:07
(UTC+00:00)

ATLAS 2AS CENTAUR R/B - Pass Details

Date: 18 April 2021
Orbit: 949 x 1263 km, 63.7° (Epoch: 02 May)

Event Time Altitude Azimuth Distance (km) Brightness Sun altitude
Rises 19:58:18 0° 217° (SW) 4,198 5.9 -9.6°
Reaches altitude 10° 20:01:05 10° 216° (SW) 3,241 5.3 -9.9°
Maximum altitude 20:09:00 82° 131° (SE) 1,270 3.0 -11.0°
Drops below altitude 10° 20:16:45 10° 45° (NE) 3,176 5.1 -12.0°
Sets 20:19:27 0° 45° (NE) 4,110 5.7 -12.3°
